Flag for Greece Weather past 2 weeks in Rhodes, Rhodes, Greece

Now
86 °F

Sunny.


Feels Like: 92 °F
Forecast: 80 / 88 °F
Wind: 12 mph from West

Location: Rhodes Airport

Current Time: Jul 30, 2015 at 11:14:10 AM

Latest Report: Jul 30, 2015 at 9:50 AM


Visibility: 10 mi

Pressure: 29.68 "Hg

Humidity: 62%

Dew point: 72 °F

Location of RhodesLocation

Historic Weather in Rhodes — Graph

°F

Rhodes temperature yesterday

Maximum temperature yesterday: 90 °F (at 1:50 PM)
Minimum temperature yesterday: 79 °F (at 3:20 AM)
Average temperature yesterday: 83 °F

Past Weeks' High & Low Weather Summary

 TemperatureHumidityPressure
High90 °F (Jul 15, 12:50 PM)94% (Jul 22, 2:50 AM)29.80 "Hg (Jul 22, 2:50 AM)
Low73 °F (Jul 17, 5:50 AM)33% (Jul 15, 12:50 PM)29.62 "Hg (Jul 21, 4:50 AM)
Average80 °F69%29.71 "Hg
* Reported Jul 15 9:20 AM — Jul 30 9:50 AM, Rhodes, Weather by CustomWeather, © 2015

Note: Actual official high and low records may vary slightly from our data, if they occured in-between our weather recording intervals... More about our weather records

Advertising

Rhodes weather history for previous 24 hours

 ConditionsComfort  
Time TempWeatherWind HumidityBarometerVisibility
9:50 AM
Thu, Jul 30
86 °FSunny.12 mph62%29.68 "Hg10 mi
9:20 AM84 °FSunny.12 mph70%29.65 "Hg10 mi
8:50 AM84 °FSunny.13 mph70%29.65 "Hg10 mi
8:20 AM81 °FSunny.13 mph74%29.65 "Hg10 mi
7:50 AM81 °FSunny.9 mph74%29.65 "Hg10 mi
7:20 AM79 °FSunny.10 mph79%29.65 "Hg10 mi
6:50 AM79 °FClear.9 mph79%29.65 "Hg10 mi
6:20 AM79 °FClear.9 mph84%29.65 "Hg10 mi
5:50 AM79 °FClear.10 mph84%29.65 "Hg10 mi
5:20 AM79 °FClear.10 mph79%29.65 "Hg10 mi
4:50 AM79 °FClear.9 mph79%29.62 "Hg10 mi
4:20 AM79 °FClear.10 mph84%29.65 "Hg10 mi
3:50 AM79 °FClear.10 mph84%29.65 "Hg10 mi
3:20 AM81 °FClear.9 mph79%29.65 "Hg10 mi
2:50 AM81 °FClear.9 mph79%29.65 "Hg10 mi
2:20 AM82 °FClear.9 mph66%29.65 "Hg10 mi
1:50 AM82 °FClear.9 mph66%29.65 "Hg10 mi
1:20 AM82 °FClear.9 mph66%29.68 "Hg10 mi
12:50 AM82 °FClear.10 mph66%29.65 "Hg10 mi
12:20 AM82 °FClear.9 mph66%29.68 "Hg10 mi
11:50 PM
Wed, Jul 29
82 °FClear.8 mph66%29.68 "Hg10 mi
11:20 PM82 °FClear.8 mph70%29.68 "Hg10 mi
10:50 PM82 °FClear.9 mph70%29.68 "Hg10 mi
10:20 PM82 °FClear.10 mph70%29.68 "Hg10 mi
9:50 PM82 °FClear.12 mph70%29.68 "Hg10 mi
9:20 PM82 °FClear.12 mph70%29.68 "Hg10 mi
8:50 PM82 °FSunny.9 mph70%29.68 "Hg10 mi
8:20 PM84 °FSunny.13 mph66%29.65 "Hg10 mi
7:50 PM84 °FSunny.14 mph66%29.65 "Hg10 mi
7:20 PM84 °FSunny.13 mph66%29.65 "Hg10 mi
6:50 PM84 °FSunny.15 mph66%29.65 "Hg10 mi
6:20 PM84 °FSunny.15 mph70%29.65 "Hg10 mi
5:50 PM84 °FSunny.16 mph70%29.65 "Hg10 mi
5:20 PM86 °FSunny.16 mph66%29.65 "Hg10 mi
4:50 PM86 °FSunny.14 mph66%29.65 "Hg10 mi
4:20 PM88 °FSunny.14 mph62%29.65 "Hg10 mi
3:50 PM88 °FSunny.14 mph62%29.65 "Hg10 mi
3:20 PM88 °FSunny.15 mph62%29.68 "Hg10 mi
2:50 PM88 °FSunny.14 mph62%29.68 "Hg10 mi
2:20 PM90 °FSunny.14 mph46%29.68 "Hg10 mi
1:50 PM90 °FSunny.14 mph46%29.68 "Hg10 mi
1:20 PM88 °FSunny.14 mph49%29.68 "Hg10 mi
12:50 PM88 °FSunny.13 mph49%29.68 "Hg10 mi
12:20 PM86 °FSunny.13 mph62%29.68 "Hg10 mi
11:50 AM86 °FSunny.13 mph62%29.68 "Hg10 mi
11:20 AM86 °FSunny.13 mph62%29.68 "Hg10 mi
Weather by CustomWeather, © 2015

See weather overviewHow to use our weather pages